| time (UTC) | temp F | wind direction | speed MPH | gust MPH | rain 1hr in | rain 24hr in | rain mn in | humidity % | barometer mb |
| 20260506045047 | 50 | 354 | 7.0 | 12.0 | 0.00 | 0.99 | 0.99 | 73 | 1014.6 |
| 20260506044547 | 50 | 0 | 6.0 | 12.0 | 0.00 | 0.99 | 0.99 | 74 | 1014.3 |
| 20260506044046 | 50 | 0 | 6.0 | 12.0 | 0.00 | 0.99 | 0.99 | 74 | 1014.2 |
| 20260506043547 | 50 | 0 | 7.0 | 14.0 | 0.00 | 0.99 | 0.99 | 74 | 1014.2 |
| 20260506043047 | 50 | 0 | 9.0 | 15.0 | 0.00 | 0.99 | 0.99 | 73 | 1014.2 |
| 20260506042546 | 50 | 0 | 9.0 | 18.0 | 0.00 | 0.99 | 0.99 | 73 | 1014.2 |
| 20260506042046 | 50 | 1 | 13.0 | 18.0 | 0.00 | 0.99 | 0.99 | 71 | 1014.1 |
| 20260506041546 | 50 | 343 | 7.0 | 12.0 | 0.00 | 0.99 | 0.99 | 76 | 1014.1 |
| 20260506040545 | 50 | 326 | 7.0 | 13.0 | 0.00 | 0.99 | 0.99 | 76 | 1013.9 |
| 20260506040047 | 50 | 329 | 6.0 | 13.0 | 0.00 | 0.99 | 0.99 | 76 | 1013.9 |
| 20260506035546 | 50 | 0 | 6.0 | 10.0 | 0.00 | 0.99 | 0.99 | 78 | 1013.9 |
| 20260506035046 | 50 | 355 | 3.0 | 5.0 | 0.00 | 0.99 | 0.99 | 81 | 1013.8 |
| 20260506034545 | 50 | 343 | 4.0 | 6.0 | 0.00 | 0.99 | 0.99 | 79 | 1014.0 |
| 20260506034044 | 50 | 343 | 3.0 | 6.0 | 0.00 | 0.99 | 0.99 | 79 | 1013.6 |
| 20260506033544 | 50 | 340 | 2.0 | 5.0 | 0.00 | 0.99 | 0.99 | 81 | 1013.6 |
| 20260506033045 | 50 | 347 | 3.0 | 5.0 | 0.00 | 0.99 | 0.99 | 83 | 1013.6 |
| 20260506032545 | 50 | 351 | 4.0 | 5.0 | 0.00 | 0.99 | 0.99 | 84 | 1013.5 |
| 20260506031546 | 50 | 306 | 2.0 | 4.0 | 0.00 | 0.99 | 0.99 | 91 | 1013.5 |
| 20260506030544 | 50 | 324 | 1.0 | 3.0 | 0.00 | 0.99 | 0.99 | 92 | 1013.0 |
| 20260506030046 | 50 | 327 | 1.0 | 3.0 | 0.00 | 0.99 | 0.99 | 92 | 1012.8 |
| 20260506025544 | 50 | 68 | 1.0 | 2.0 | 0.00 | 0.99 | 0.99 | 92 | 1012.8 |
| 20260506025045 | 50 | 68 | 0.0 | 0.0 | 0.00 | 0.99 | 0.99 | 92 | 1012.6 |
| 20260506024045 | 49 | 68 | 0.0 | 2.0 | 0.00 | 0.99 | 0.99 | 91 | 1012.5 |
| 20260506023543 | 49 | 68 | 0.0 | 2.0 | 0.00 | 0.99 | 0.99 | 91 | 1012.5 |
| 20260506022544 | 49 | 68 | 0.0 | 1.0 | 0.00 | 0.99 | 0.99 | 89 | 1012.3 |
| 20260506022043 | 49 | 68 | 0.0 | 0.0 | 0.00 | 0.99 | 0.99 | 88 | 1012.2 |
| 20260506021045 | 50 | 68 | 0.0 | 0.0 | 0.00 | 0.99 | 0.99 | 87 | 1011.9 |
| 20260506020543 | 50 | 68 | 0.0 | 0.0 | 0.00 | 0.99 | 0.99 | 87 | 1011.8 |
| 20260506020044 | 50 | 68 | 0.0 | 0.0 | 0.00 | 0.99 | 0.99 | 87 | 1011.8 |
| 20260506015543 | 50 | 68 | 0.0 | 0.0 | 0.00 | 0.99 | 0.99 | 87 | 1011.8 |
| 20260506014542 | 51 | 68 | 0.0 | 1.0 | 0.00 | 0.99 | 0.99 | 86 | 1011.8 |
| 20260506014042 | 51 | 68 | 0.0 | 1.0 | 0.00 | 0.99 | 0.99 | 85 | 1011.8 |
| 20260506013542 | 51 | 68 | 0.0 | 0.0 | 0.00 | 0.99 | 0.99 | 86 | 1011.7 |
| 20260506012542 | 51 | 68 | 0.0 | 0.0 | 0.00 | 0.99 | 0.99 | 86 | 1011.3 |
| 20260506012042 | 52 | 68 | 0.0 | 0.0 | 0.00 | 0.99 | 0.99 | 85 | 1011.5 |
| 20260506011541 | 52 | 68 | 0.0 | 1.0 | 0.00 | 0.99 | 0.99 | 85 | 1011.5 |
| 20260506011042 | 52 | 68 | 0.0 | 2.0 | 0.00 | 0.99 | 0.99 | 85 | 1011.5 |
| 20260506010541 | 52 | 68 | 0.0 | 2.0 | 0.00 | 0.99 | 0.99 | 85 | 1011.2 |
| 20260506010041 | 52 | 0 | 1.0 | 2.0 | 0.00 | 0.99 | 0.99 | 85 | 1011.3 |
| 20260506005541 | 52 | 0 | 0.0 | 2.0 | 0.00 | 0.99 | 0.99 | 84 | 1011.5 |
| 20260506004541 | 53 | 0 | 1.0 | 2.0 | 0.00 | 0.99 | 0.99 | 84 | 1011.3 |
| 20260506003540 | 53 | 0 | 1.0 | 3.0 | 0.00 | 0.99 | 0.99 | 83 | 1011.2 |
| 20260506003041 | 53 | 0 | 1.0 | 3.0 | 0.00 | 0.99 | 0.99 | 82 | 1011.3 |
| 20260506002540 | 53 | 0 | 1.0 | 3.0 | 0.00 | 0.99 | 0.99 | 82 | 1011.3 |
| 20260506002040 | 53 | 0 | 2.0 | 3.0 | 0.00 | 0.99 | 0.99 | 82 | 1011.4 |
| 20260506001540 | 53 | 0 | 2.0 | 3.0 | 0.00 | 0.99 | 0.99 | 82 | 1011.4 |
| 20260506001041 | 53 | 0 | 2.0 | 4.0 | 0.00 | 0.99 | 0.99 | 82 | 1011.4 |
| 20260506000539 | 53 | 0 | 2.0 | 4.0 | 0.00 | 0.99 | 0.99 | 81 | 1011.5 |
| 20260506000040 | 53 | 1 | 2.0 | 5.0 | 0.00 | 0.99 | 0.99 | 82 | 1011.3 |
| 20260505235540 | 53 | 0 | 1.0 | 7.0 | 0.00 | 0.99 | 0.99 | 81 | 1011.2 |
| 20260505235039 | 53 | 0 | 4.0 | 7.0 | 0.00 | 0.99 | 0.99 | 80 | 1011.1 |
| 20260505234540 | 53 | 13 | 4.0 | 7.0 | 0.00 | 0.99 | 0.99 | 80 | 1011.2 |
| 20260505234039 | 53 | 0 | 3.0 | 6.0 | 0.00 | 0.99 | 0.99 | 80 | 1011.3 |
| 20260505233540 | 53 | 0 | 3.0 | 6.0 | 0.00 | 0.99 | 0.99 | 80 | 1011.1 |
| 20260505233040 | 53 | 0 | 4.0 | 6.0 | 0.00 | 0.99 | 0.99 | 80 | 1011.1 |
| 20260505232540 | 53 | 0 | 5.0 | 6.0 | 0.00 | 0.99 | 0.99 | 80 | 1011.0 |
| 20260505232039 | 53 | 8 | 4.0 | 6.0 | 0.00 | 0.99 | 0.99 | 80 | 1011.0 |
| 20260505231538 | 53 | 358 | 3.0 | 5.0 | 0.00 | 0.99 | 0.99 | 81 | 1011.3 |
| 20260505230538 | 53 | 0 | 5.0 | 6.0 | 0.00 | 0.99 | 0.99 | 81 | 1011.3 |
| 20260505230038 | 53 | 18 | 4.0 | 5.0 | 0.00 | 0.99 | 0.99 | 81 | 1011.2 |
| 20260505225038 | 52 | 0 | 3.0 | 4.0 | 0.00 | 0.99 | 0.99 | 80 | 1011.2 |
| 20260505224038 | 52 | 11 | 2.0 | 5.0 | 0.00 | 0.99 | 0.99 | 81 | 1011.3 |
| 20260505223039 | 52 | 7 | 3.0 | 5.0 | 0.00 | 0.99 | 0.99 | 81 | 1011.2 |
| 20260505222538 | 52 | 7 | 2.0 | 5.0 | 0.00 | 0.99 | 0.99 | 81 | 1011.2 |
| 20260505222037 | 52 | 7 | 3.0 | 6.0 | 0.00 | 0.99 | 0.99 | 81 | 1011.3 |
| 20260505221037 | 52 | 10 | 3.0 | 6.0 | 0.00 | 0.99 | 0.99 | 81 | 1011.2 |
| 20260505220537 | 52 | 10 | 4.0 | 6.0 | 0.00 | 0.99 | 0.99 | 81 | 1011.2 |
| 20260505220036 | 52 | 47 | 1.0 | 4.0 | 0.00 | 0.99 | 0.99 | 80 | 1011.4 |
| 20260505215537 | 52 | 23 | 1.0 | 5.0 | 0.00 | 0.99 | 0.99 | 80 | 1011.5 |
| 20260505215037 | 52 | 23 | 2.0 | 7.0 | 0.00 | 0.99 | 0.99 | 81 | 1011.5 |
| 20260505214536 | 51 | 8 | 4.0 | 7.0 | 0.00 | 0.99 | 0.99 | 81 | 1011.5 |
| 20260505214036 | 51 | 3 | 5.0 | 7.0 | 0.00 | 0.99 | 0.99 | 81 | 1011.4 |
| 20260505213537 | 51 | 16 | 4.0 | 7.0 | 0.00 | 0.99 | 0.99 | 83 | 1011.5 |
| 20260505213037 | 51 | 34 | 6.0 | 9.0 | 0.00 | 0.99 | 0.99 | 82 | 1011.2 |
| 20260505212536 | 51 | 0 | 5.0 | 9.0 | 0.00 | 0.99 | 0.99 | 83 | 1011.5 |
| 20260505212038 | 51 | 17 | 4.0 | 7.0 | 0.00 | 0.99 | 0.99 | 83 | 1011.5 |
| 20260505211536 | 51 | 351 | 4.0 | 7.0 | 0.00 | 0.99 | 0.99 | 84 | 1011.7 |
| 20260505211037 | 51 | 17 | 3.0 | 9.0 | 0.00 | 0.99 | 0.99 | 84 | 1011.8 |
| 20260505210536 | 51 | 0 | 6.0 | 9.0 | 0.00 | 0.99 | 0.99 | 84 | 1011.6 |
| 20260505210036 | 51 | 11 | 5.0 | 7.0 | 0.00 | 0.99 | 0.99 | 82 | 1011.6 |
| 20260505205535 | 50 | 16 | 4.0 | 7.0 | 0.00 | 0.99 | 0.99 | 83 | 1011.3 |
| 20260505205035 | 50 | 8 | 4.0 | 6.0 | 0.00 | 0.99 | 0.99 | 84 | 1011.3 |
| 20260505203535 | 50 | 344 | 3.0 | 6.0 | 0.00 | 0.99 | 0.99 | 84 | 1012.0 |
| 20260505203035 | 50 | 25 | 4.0 | 6.0 | 0.00 | 0.99 | 0.99 | 83 | 1011.7 |
| 20260505202535 | 50 | 55 | 4.0 | 7.0 | 0.00 | 0.99 | 0.99 | 83 | 1011.7 |
| 20260505202036 | 50 | 42 | 4.0 | 9.0 | 0.00 | 0.99 | 0.99 | 82 | 1011.7 |
| 20260505201534 | 50 | 38 | 5.0 | 10.0 | 0.00 | 0.99 | 0.99 | 84 | 1011.9 |
| 20260505201035 | 50 | 8 | 7.0 | 10.0 | 0.00 | 0.99 | 0.99 | 84 | 1011.9 |
| 20260505200534 | 50 | 353 | 4.0 | 6.0 | 0.00 | 0.99 | 0.99 | 86 | 1011.6 |
| 20260505195534 | 50 | 6 | 3.0 | 7.0 | 0.00 | 0.99 | 0.99 | 87 | 1011.9 |
| 20260505195034 | 49 | 23 | 4.0 | 7.0 | 0.00 | 0.99 | 0.99 | 86 | 1011.6 |
| 20260505194534 | 49 | 63 | 3.0 | 6.0 | 0.01 | 0.99 | 0.99 | 86 | 1011.5 |
| 20260505194034 | 49 | 31 | 3.0 | 6.0 | 0.02 | 0.99 | 0.99 | 87 | 1011.5 |
| 20260505193034 | 48 | 37 | 3.0 | 6.0 | 0.03 | 0.99 | 0.99 | 87 | 1011.6 |
| 20260505192533 | 48 | 41 | 2.0 | 6.0 | 0.04 | 0.99 | 0.99 | 87 | 1011.6 |
| 20260505192033 | 48 | 56 | 4.0 | 6.0 | 0.05 | 0.99 | 0.99 | 87 | 1011.8 |
| 20260505191533 | 48 | 35 | 4.0 | 5.0 | 0.05 | 0.99 | 0.99 | 87 | 1011.7 |
| 20260505191033 | 48 | 63 | 2.0 | 7.0 | 0.05 | 0.99 | 0.99 | 88 | 1011.7 |
| 20260505190532 | 48 | 73 | 4.0 | 9.0 | 0.05 | 0.99 | 0.99 | 88 | 1011.6 |
| 20260505190034 | 48 | 85 | 5.0 | 9.0 | 0.05 | 0.99 | 0.99 | 88 | 1011.6 |
| 20260505185532 | 48 | 37 | 4.0 | 7.0 | 0.05 | 0.94 | 0.99 | 88 | 1011.8 |
| 20260505184532 | 47 | 48 | 3.0 | 10.0 | 0.06 | 0.94 | 0.98 | 88 | 1011.9 |
| 20260505183532 | 47 | 38 | 5.0 | 10.0 | 0.07 | 0.94 | 0.96 | 88 | 1011.7 |
| 20260505183033 | 47 | 56 | 3.0 | 6.0 | 0.07 | 0.94 | 0.95 | 89 | 1011.8 |
| 20260505181531 | 47 | 10 | 5.0 | 7.0 | 0.05 | 0.94 | 0.94 | 90 | 1012.1 |
| 20260505181032 | 47 | 59 | 3.0 | 4.0 | 0.05 | 0.94 | 0.94 | 90 | 1012.1 |
| 20260505180531 | 47 | 90 | 1.0 | 5.0 | 0.05 | 0.94 | 0.94 | 90 | 1012.6 |
| 20260505180030 | 47 | 66 | 3.0 | 5.0 | 0.06 | 0.94 | 0.94 | 90 | 1012.5 |
| 20260505175533 | 47 | 80 | 3.0 | 5.0 | 0.06 | 0.88 | 0.94 | 90 | 1012.5 |
| 20260505175030 | 47 | 93 | 2.0 | 7.0 | 0.05 | 0.88 | 0.93 | 90 | 1012.6 |
| 20260505174529 | 47 | 104 | 2.0 | 7.0 | 0.04 | 0.88 | 0.92 | 89 | 1012.4 |
| 20260505173530 | 47 | 56 | 2.0 | 10.0 | 0.01 | 0.88 | 0.89 | 88 | 1012.5 |
| 20260505173030 | 47 | 38 | 6.0 | 11.0 | 0.03 | 0.88 | 0.89 | 87 | 1012.3 |
| 20260505172530 | 47 | 42 | 5.0 | 11.0 | 0.07 | 0.88 | 0.89 | 86 | 1012.6 |
| 20260505171530 | 47 | 69 | 4.0 | 14.0 | 0.10 | 0.88 | 0.89 | 87 | 1012.6 |
| 20260505171030 | 47 | 45 | 8.0 | 14.0 | 0.15 | 0.88 | 0.89 | 87 | 1012.5 |
| 20260505170530 | 47 | 47 | 6.0 | 14.0 | 0.16 | 0.88 | 0.89 | 89 | 1012.2 |
| 20260505170030 | 47 | 83 | 6.0 | 11.0 | 0.16 | 0.88 | 0.88 | 89 | 1012.1 |
| 20260505165030 | 47 | 62 | 7.0 | 15.0 | 0.21 | 0.72 | 0.88 | 89 | 1012.3 |
| 20260505164530 | 47 | 42 | 7.0 | 15.0 | 0.23 | 0.72 | 0.88 | 89 | 1012.1 |
| 20260505164029 | 47 | 65 | 7.0 | 15.0 | 0.23 | 0.72 | 0.88 | 89 | 1011.9 |
| 20260505163530 | 47 | 65 | 8.0 | 15.0 | 0.23 | 0.72 | 0.88 | 89 | 1011.9 |
| 20260505163029 | 47 | 73 | 7.0 | 13.0 | 0.21 | 0.72 | 0.86 | 89 | 1011.9 |
| 20260505162532 | 47 | 54 | 6.0 | 13.0 | 0.17 | 0.72 | 0.82 | 89 | 1012.0 |
| 20260505162029 | 47 | 47 | 2.0 | 13.0 | 0.16 | 0.72 | 0.81 | 88 | 1012.3 |
| 20260505153027 | 49 | 31 | 6.0 | 11.0 | 0.03 | 0.63 | 0.65 | 86 | 1012.1 |
| 20260505152528 | 49 | 69 | 6.0 | 10.0 | 0.03 | 0.63 | 0.65 | 86 | 1011.5 |
| 20260505152028 | 49 | 55 | 5.0 | 16.0 | 0.03 | 0.63 | 0.65 | 85 | 1011.7 |
| 20260505151028 | 49 | 13 | 7.0 | 15.0 | 0.01 | 0.63 | 0.63 | 82 | 1012.2 |
| 20260505140505 | 49 | 31 | 10.0 | 14.0 | 0.03 | 0.62 | 0.62 | 86 | 1010.8 |
| 20260505124502 | 50 | 20 | 8.0 | 13.0 | 0.00 | 0.59 | 0.59 | 80 | 1010.0 |
| 20260505123505 | 50 | 0 | 5.0 | 9.0 | 0.00 | 0.59 | 0.59 | 81 | 1010.0 |
| 20260505122502 | 50 | 35 | 3.0 | 7.0 | 0.00 | 0.59 | 0.59 | 81 | 1009.0 |
| 20260505122002 | 50 | 56 | 4.0 | 7.0 | 0.00 | 0.59 | 0.59 | 81 | 1008.9 |
| 20260505121502 | 50 | 42 | 4.0 | 9.0 | 0.00 | 0.59 | 0.59 | 81 | 1008.8 |
| 20260505121004 | 50 | 54 | 5.0 | 10.0 | 0.00 | 0.59 | 0.59 | 81 | 1008.8 |
| 20260505120502 | 50 | 61 | 3.0 | 10.0 | 0.00 | 0.59 | 0.59 | 81 | 1008.6 |
| 20260505115502 | 50 | 3 | 7.0 | 11.0 | 0.00 | 0.59 | 0.59 | 81 | 1008.6 |
| 20260505115003 | 50 | 49 | 4.0 | 5.0 | 0.00 | 0.59 | 0.59 | 82 | 1009.2 |
| 20260505114503 | 50 | 0 | 2.0 | 4.0 | 0.00 | 0.59 | 0.59 | 81 | 1009.9 |
| 20260505114001 | 50 | 351 | 1.0 | 6.0 | 0.00 | 0.59 | 0.59 | 81 | 1009.6 |
| 20260505113502 | 50 | 58 | 2.0 | 10.0 | 0.00 | 0.59 | 0.59 | 82 | 1008.8 |
| 20260505113003 | 50 | 52 | 4.0 | 10.0 | 0.00 | 0.59 | 0.59 | 81 | 1008.5 |
| 20260505112502 | 50 | 52 | 4.0 | 9.0 | 0.00 | 0.59 | 0.59 | 82 | 1008.4 |
| 20260505111002 | 50 | 44 | 6.0 | 12.0 | 0.00 | 0.59 | 0.59 | 81 | 1008.6 |
| 20260505110503 | 50 | 61 | 6.0 | 15.0 | 0.00 | 0.59 | 0.59 | 81 | 1008.3 |
| 20260505102003 | 50 | 76 | 7.0 | 12.0 | 0.00 | 0.59 | 0.59 | 79 | 1007.7 |
| 20260505101503 | 50 | 35 | 6.0 | 12.0 | 0.00 | 0.59 | 0.59 | 80 | 1007.8 |
| 20260505101002 | 50 | 28 | 7.0 | 13.0 | 0.00 | 0.59 | 0.59 | 79 | 1008.0 |
| 20260505100502 | 50 | 31 | 5.0 | 13.0 | 0.00 | 0.59 | 0.59 | 80 | 1008.2 |
| 20260505100002 | 50 | 24 | 6.0 | 12.0 | 0.00 | 0.59 | 0.59 | 79 | 1008.2 |
| 20260505095502 | 51 | 6 | 8.0 | 13.0 | 0.00 | 0.59 | 0.59 | 79 | 1008.2 |
| 20260505094503 | 51 | 30 | 8.0 | 14.0 | 0.00 | 0.59 | 0.59 | 79 | 1008.1 |
| 20260505094003 | 51 | 18 | 11.0 | 16.0 | 0.00 | 0.59 | 0.59 | 79 | 1007.9 |
| 20260505093503 | 51 | 0 | 9.0 | 16.0 | 0.00 | 0.59 | 0.59 | 79 | 1007.9 |
| 20260505093002 | 51 | 31 | 9.0 | 16.0 | 0.00 | 0.59 | 0.59 | 79 | 1008.2 |
| 20260505092503 | 51 | 30 | 7.0 | 12.0 | 0.00 | 0.59 | 0.59 | 78 | 1008.4 |
| 20260505091503 | 51 | 25 | 7.0 | 14.0 | 0.00 | 0.59 | 0.59 | 78 | 1008.0 |
| 20260505090503 | 50 | 23 | 8.0 | 14.0 | 0.00 | 0.59 | 0.59 | 78 | 1007.9 |
| 20260505085002 | 50 | 0 | 9.0 | 15.0 | 0.00 | 0.59 | 0.59 | 80 | 1007.4 |
| 20260505084003 | 50 | 16 | 11.0 | 17.0 | 0.00 | 0.59 | 0.59 | 78 | 1006.7 |
| 20260505083003 | 50 | 24 | 11.0 | 24.0 | 0.03 | 0.59 | 0.59 | 79 | 1006.8 |
| 20260505082002 | 50 | 3 | 13.0 | 23.0 | 0.09 | 0.59 | 0.59 | 79 | 1006.5 |
| 20260505081502 | 50 | 24 | 14.0 | 19.0 | 0.11 | 0.59 | 0.59 | 80 | 1006.3 |
| 20260505081002 | 50 | 14 | 12.0 | 19.0 | 0.13 | 0.59 | 0.59 | 81 | 1006.4 |
| 20260505080502 | 50 | 3 | 13.0 | 23.0 | 0.14 | 0.59 | 0.59 | 81 | 1006.4 |
| 20260505080003 | 50 | 0 | 18.0 | 23.0 | 0.16 | 0.43 | 0.59 | 82 | 1006.1 |
| 20260505075503 | 51 | 10 | 16.0 | 27.0 | 0.17 | 0.43 | 0.59 | 82 | 1005.6 |
| 20260505075002 | 51 | 6 | 14.0 | 27.0 | 0.18 | 0.43 | 0.59 | 82 | 1005.2 |
| 20260505074502 | 51 | 7 | 15.0 | 31.0 | 0.20 | 0.43 | 0.59 | 83 | 1004.9 |
| 20260505074003 | 51 | 51 | 21.0 | 37.0 | 0.21 | 0.43 | 0.59 | 81 | 1003.6 |
| 20260505073502 | 51 | 38 | 23.0 | 37.0 | 0.22 | 0.43 | 0.58 | 82 | 1002.1 |
| 20260505072502 | 53 | 28 | 16.0 | 23.0 | 0.26 | 0.43 | 0.52 | 83 | 1005.8 |
| 20260505072004 | 53 | 13 | 14.0 | 22.0 | 0.30 | 0.43 | 0.49 | 84 | 1006.8 |
| 20260505071502 | 54 | 11 | 11.0 | 16.0 | 0.32 | 0.43 | 0.47 | 86 | 1007.2 |
| 20260505071003 | 54 | 11 | 9.0 | 14.0 | 0.32 | 0.43 | 0.46 | 87 | 1008.0 |
| 20260505070501 | 54 | 20 | 8.0 | 13.0 | 0.34 | 0.43 | 0.45 | 87 | 1008.5 |
| 20260505070002 | 54 | 337 | 4.0 | 11.0 | 0.39 | 0.04 | 0.43 | 87 | 1009.3 |
| 20260505065502 | 54 | 303 | 4.0 | 7.0 | 0.41 | 0.04 | 0.41 | 86 | 1009.5 |
| 20260505065002 | 54 | 20 | 2.0 | 14.0 | 0.41 | 0.04 | 0.40 | 86 | 1008.1 |
| 20260505064502 | 54 | 353 | 6.0 | 20.0 | 0.39 | 0.04 | 0.39 | 86 | 1007.5 |
| 20260505064002 | 54 | 4 | 10.0 | 20.0 | 0.38 | 0.04 | 0.38 | 86 | 1006.9 |
| 20260505063502 | 54 | 6 | 14.0 | 20.0 | 0.36 | 0.04 | 0.36 | 86 | 1006.3 |
| 20260505063002 | 54 | 13 | 13.0 | 18.0 | 0.32 | 0.04 | 0.28 | 85 | 1006.1 |
| 20260505062504 | 55 | 0 | 12.0 | 22.0 | 0.27 | 0.04 | 0.25 | 84 | 1006.3 |
| 20260505062004 | 56 | 0 | 11.0 | 32.0 | 0.20 | 0.04 | 0.19 | 80 | 1006.1 |
| 20260505061503 | 57 | 16 | 18.0 | 32.0 | 0.16 | 0.04 | 0.16 | 78 | 1005.5 |
| 20260505061003 | 57 | 21 | 20.0 | 28.0 | 0.14 | 0.04 | 0.14 | 81 | 1005.5 |
| 20260505060503 | 58 | 348 | 15.0 | 26.0 | 0.11 | 0.04 | 0.08 | 78 | 1005.7 |
| 20260505060002 | 61 | 344 | 12.0 | 28.0 | 0.04 | 0.00 | 0.04 | 72 | 1005.4 |
| 20260505055503 | 64 | 355 | 17.0 | 29.0 | 0.01 | 0.00 | 0.00 | 61 | 1004.8 |
| 20260505055002 | 66 | 0 | 20.0 | 31.0 | 0.00 | 0.00 | 0.00 | 52 | 1004.4 |
| 20260505054504 | 67 | 0 | 23.0 | 31.0 | 0.00 | 0.00 | 0.00 | 53 | 1003.8 |
| 20260505054004 | 68 | 10 | 21.0 | 27.0 | 0.00 | 0.00 | 0.00 | 55 | 1003.5 |
| 20260505053502 | 68 | 13 | 10.0 | 19.0 | 0.00 | 0.00 | 0.00 | 67 | 1003.7 |
| 20260505053002 | 68 | 23 | 6.0 | 10.0 | 0.00 | 0.00 | 0.00 | 76 | 1003.7 |
| 20260505052502 | 67 | 351 | 5.0 | 10.0 | 0.00 | 0.00 | 0.00 | 80 | 1003.6 |
| 20260505052003 | 67 | 327 | 4.0 | 11.0 | 0.00 | 0.00 | 0.00 | 81 | 1003.5 |
| 20260505051502 | 66 | 329 | 6.0 | 11.0 | 0.00 | 0.00 | 0.00 | 82 | 1003.5 |
| 20260505050503 | 65 | 193 | 0.0 | 0.0 | 0.00 | 0.00 | 0.00 | 82 | 1002.8 |